Regional Weather Roundup
Issued by NWS

Home | Current Version | Previous Version | Graphics & Text | Print | Product List | Glossary On
Versions: 1 2 3 4 5 6 7 8 9 10 11 12 13 14 15 16 17 18 19 20 21 22 23 24 25 26 27 28 29 30 31 32 33 34 35 36 37 38 39 40 41 42 43 44 45 46 47 48 49 50
000
ASUS45 KCYS 011610
RWRWY

WYOMING REGIONAL WEATHER ROUNDUP
NATIONAL WEATHER SERVICE CHEYENNE WY
1000 AM MDT TUE SEP 01 2015

NOTE:  "FAIR" INDICATES FEW OR NO CLOUDS BELOW 12,000 FEET
WITH NO SIGNIFICANT WEATHER AND/OR OBSTRUCTIONS TO VISIBILITY.

WYZ001-011700-
YELLOWSTONE NATIONAL PARK

CITY           SKY/WX    TMP DP  RH WIND       PRES   REMARKS
LK YELLOWSTONE   N/A     56  37  49 SE3       30.22S
W YELLOWSTONE  NOT AVBL

$$
WYZ002>013-054>058-071-098>099-011700-
NORTHERN WYOMING

CITY           SKY/WX    TMP DP  RH WIND       PRES   REMARKS
JACKSON        FAIR      55  30  38 CALM      30.15F
CODY           FAIR      75  30  19 SW7       29.98F
GREYBULL       FAIR      66  29  24 CALM      29.95S
WORLAND        FAIR      68  43  40 W5        29.96S
SHERIDAN       FAIR      76  41  28 CALM      29.92S
BUFFALO        FAIR      78  38  23 NE5       29.99S
GILLETTE       FAIR      79  37  22 W13       29.94S
HULETT         FAIR      73  50  43 SW15      29.95S
NEWCASTLE      FAIR      72  41  33 S6        29.98S

$$
WYZ014>020-022>026-101>103-011700-
CENTRAL WYOMING

CITY           SKY/WX    TMP DP  RH WIND       PRES   REMARKS
BIG PINEY      FAIR      57  26  30 CALM      30.21S
PINEDALE       FAIR      61  30  31 CALM      30.21S
DUBOIS         FAIR      68  28  22 N9        30.14F
LANDER         FAIR      69  34  27 CALM      30.06S
RIVERTON       FAIR      65  41  41 VRB3      30.07S
CASPER         FAIR      74  40  29 SW22      30.06R
DOUGLAS        FAIR      76  42  29 VRB3      30.04S

$$
WYZ021-027>030-104>119-011700-
SOUTHERN WYOMING

CITY           SKY/WX    TMP DP  RH WIND       PRES   REMARKS
EVANSTON       FAIR      69  41  36 SW13      30.20S
KEMMERER       FAIR      66  36  32 SW5       30.21S
FORT BRIDGER   SUNNY     68  41  37 CALM      30.22S
ROCK SPRINGS   FAIR      65  45  48 N3        30.20R
DIXON          PTSUNNY   65  48  52 SW3       30.25R
RAWLINS        FAIR      72  41  32 SW21G26   30.20S
SARATOGA       FAIR      68  46  45 SE8       30.23F
LARAMIE        FAIR      69  44  40 W13G21    30.22S
CHEYENNE       FAIR      77  43  29 W17       30.15R
TORRINGTON     FAIR      73  50  44 W3        29.99F
PINE BLUFFS    FAIR      77  43  29 W5        30.09F

$$


USA.gov is the U.S. government's official web portal to all federal, state and local government web resources and services.